GHGSAT-C3 (52737 NORAD) Tracking and Keplerian Element Data
This shows tracking and keplerian element data for the satellite.
Feedback or suggestion? Click here.
Element | Value |
Catalog | 52737 |
Name | GHGSAT-C3 |
Epoch Orbit | 716 |
Epoch Day | 193.15647322 |
Epoch Year | 2022 |
RAAN | 307.4214 |
Inclination | 97.5179 |
Eccentricity | 0.0010774 |
Argument of Perigee | 89.3644 |
Mean Anonmoly | 355.1489 |
Mean Motion | 15.11855567 |
Decay Rate | 2.523E-05 |
L1 | 1 52737U 22057F 22193.15647322 .00002523 00000+0 15112-3 0 9991 |
L2 | 2 52737 97.5179 307.4214 0010774 89.3644 355.1489 15.11855567 7161 |
Live tracking and technical data element details for GHGSAT-C3 (NORAD 52737). GHGSAT-C3 can be tracked NOW for your location showing map with azimuth and elevation plus other details from your city location.
Track the satellite on the map from your city or location and see movement details for azimuth, elevation, latitude, longitude, range, height, and movement on the map or in text.
IsCatalogInMostPopularTable: catalog: 52737, numindb: 3
Update: records affected: 1
GetName: 52737 GHGSAT-C3
Hit Count: updated at: Sun, 14 Aug 2022 00:59:30 GMT